Location: Rounton
(54.4000°N, 1.3500°W)
Time: 09:17:57
(UTC+01:00)

A-11 Canister half - Pass Details

Date: 04 July 2022
Orbit: 1525 x 1683 km, 47.3° (Epoch: 16 August)

Event Time Altitude Azimuth Distance (km) Brightness Sun altitude
Rises 23:24:02 0° 284° (WNW) 4,714 12.2 -9.5°
Reaches altitude 10° 23:27:48 10° 271° (W) 3,713 11.4 -9.7°
Maximum altitude 23:34:47 25° 222° (SW) 2,723 10.1 -10.1°
Enters shadow 23:41:23 11° 174° (S) 3,607 10.3 -10.5°
